{"data":{"norad_id":54082,"intl_designator":"2022-136AH","name":"STARLINK-5210","alt_names":[],"object_type":"PAYLOAD","status":"ACTIVE","operator":null,"country":"US","launch_date":"2022-10-20","launch_site_code":"AFETR","launch_vehicle":null,"mission":null,"orbit_class":"UNKNOWN","rcs_meters":null,"size_class":null,"mass_kg":null,"dimensions":null,"purposes":["comms"],"wikipedia_slug":null,"has_3d_model":false,"image_url":null,"decayed_at":null,"tle_current":{"epoch":"2026-09-20T22:00:03.000096Z","epoch_age_seconds":50455,"freshness":"FRESH","line1":"1 54082U 22136AH  26263.91670139  .00010540  00000+0  51435-3 0  9998","line2":"2 54082  53.1592 176.8262 0001412 116.4101 111.0456 15.18829920  5806","mean_motion":15.1882992,"eccentricity":0.0001412,"inclination_deg":53.1592,"raan_deg":176.8262,"arg_perigee_deg":116.4101,"mean_anomaly_deg":111.0456,"bstar":0.00051435,"rev_number":580,"period_min":94.809825711097,"perigee_km":508.40317377065,"apogee_km":510.34820735446,"semimajor_km":6887.5126905626,"source":"CELESTRAK","updated_at":"2026-09-21T09:00:33.081256Z"}}}